RH
15 14 14 14 13 13 12 12 13 14 14 16 25 31 38 41 40 39 50 42 45 48 39 31 30 29 30 25 26 23 18 20 20 17 18 21 18 17 18 16 16 16 17 17 20
20 18 17 17 14 13 11 9 9 10 11 12 14 18 22 29 41 45 41 40 41 48 60 47 39 34 31 35 31 27 23 27 24 24 20 22 21 21 20 18 19 19 20 22 21
24 22 21 18 15 12 10 9 8 8 9 9 10 11 14 19 19 27 31 42 45 38 38 54 60 42 34 34 33 41 41 38 35 31 26 26 23 22 22 24 21 22 24 23 23
27 27 25 19 16 13 10 8 8 8 8 8 8 9 11 13 16 19 21 22 31 40 43 38 51 58 47 41 36 34 32 32 42 46 40 36 32 30 27 24 27 27 27 26 24
35 30 28 24 17 13 10 8 7 7 7 7 7 7 9 11 13 16 17 18 19 21 29 35 42 40 54 50 48 42 37 34 34 36 47 56 54 53 39 30 28 29 30 29 29
48 37 31 31 23 14 10 9 8 8 7 7 7 7 7 8 10 13 15 16 17 18 20 22 28 31 37 39 41 39 35 38 39 38 36 39 38 43 54 49 32 29 29 33 36
57 55 38 37 32 16 12 9 8 7 7 7 7 7 7 7 8 9 12 14 15 16 17 18 19 22 26 30 30 28 30 36 37 40 35 34 43 45 42 51 44 36 34 35 35
78 63 41 35 34 24 15 9 8 7 7 7 8 7 7 8 8 8 8 9 10 12 12 12 13 15 18 20 20 19 23 30 34 37 40 42 50 51 54 56 56 54 51 44 39
75 84 68 35 31 36 26 14 9 8 7 8 8 7 8 8 8 8 9 10 10 10 10 10 9 12 17 17 16 15 14 14 16 18 20 22 28 51 55 57 62 66 56 51 46
75 71 87 69 28 29 44 31 14 9 8 8 8 7 8 9 9 9 9 9 10 9 9 8 8 8 9 11 11 12 13 11 10 11 11 12 17 25 35 48 54 61 65 67 68
63 73 62 85 67 34 31 42 34 14 9 8 8 8 9 10 10 10 10 10 10 9 9 9 10 10 10 10 9 9 9 9 9 8 8 9 11 15 20 27 44 54 54 58 66
64 61 72 88 86 55 26 30 37 24 15 10 9 9 10 9 11 11 12 10 9 9 9 9 9 9 8 8 8 7 8 7 7 7 8 8 9 10 12 16 22 30 47 59 59
62 63 66 83 90 81 37 22 29 29 27 17 11 10 12 11 10 11 12 12 12 10 9 9 8 8 8 8 8 8 8 8 8 9 8 9 9 10 12 17 24 28 32 42 51
61 57 63 72 81 88 78 33 23 26 28 33 21 13 12 13 14 12 13 13 14 12 10 9 9 8 8 8 9 10 10 10 10 10 12 14 12 13 15 20 28 32 35 38 40
56 60 59 61 67 67 74 55 24 20 21 25 35 22 14 14 14 15 13 13 15 13 11 9 8 8 8 9 10 11 11 12 13 13 15 21 16 30 30 26 28 34 41 46 51
57 66 73 64 60 58 56 59 34 19 18 19 22 31 30 18 15 14 16 16 14 15 13 11 8 8 8 9 10 13 13 14 17 22 19 39 24 49 65 52 43 56 66 66 63
73 63 68 64 58 49 45 40 42 22 18 17 17 18 27 36 26 20 16 18 19 16 16 14 11 9 8 10 12 13 14 15 20 22 28 55 42 56 94 83 72 62 63 64 67
78 69 67 60 53 42 31 30 32 22 17 16 16 15 17 22 36 34 27 21 18 20 18 17 14 12 10 9 12 13 15 15 16 25 36 53 61 73 80 89 80 68 60 65 73
96 80 74 66 46 37 24 22 24 21 18 16 16 16 14 15 18 35 42 41 26 21 19 20 17 16 12 11 10 11 13 16 20 26 38 64 78 86 82 82 78 70 69 74 85
86 87 77 56 43 33 22 17 20 23 17 16 15 15 15 14 14 18 32 41 47 41 29 19 22 20 19 14 12 11 13 16 21 29 38 66 77 80 88 81 85 85 85 90 92
72 54 46 39 33 25 22 21 18 20 18 16 15 14 14 13 13 14 20 28 36 41 44 38 20 21 22 20 18 13 12 14 17 28 41 63 92 98 90 84 81 86 83 84 78
34 30 30 28 23 20 19 19 18 17 16 16 15 14 13 12 13 14 17 23 29 32 35 40 45 31 21 23 22 21 15 12 14 20 42 67 97 97 80 82 75 76 79 83 75
28 26 23 21 19 20 18 18 19 17 16 15 14 14 13 12 13 17 22 26 29 29 27 29 36 45 40 24 25 26 22 17 13 13 34 40 96 92 78 79 80 78 72 77 71
24 21 18 17 17 20 18 18 18 17 15 14 13 13 13 15 17 22 26 31 31 29 23 22 27 31 39 41 29 26 26 24 19 15 20 41 59 96 84 82 86 80 78 76 77
17 17 16 16 17 19 18 16 15 14 14 13 13 14 18 25 27 31 29 29 25 24 22 22 22 25 29 35 37 33 26 25 23 23 15 29 37 55 70 93 99 100 97 100 91
17 17 16 17 17 18 17 14 13 13 14 15 18 23 26 26 24 25 22 22 23 22 24 22 22 20 22 25 31 35 39 23 25 22 20 18 32 26 48 75 85 96 100 100 97
18 17 16 16 17 17 14 13 15 17 22 24 23 23 22 20 20 22 22 20 16 15 12 12 13 12 12 14 19 25 35 29 20 22 21 20 20 19 29 46 64 69 82 98 100
Wind_Speed
61 59 60 54 45 42 46 51 51 54 54 58 63 68 71 73 73 70 72 73 73 75 74 74 70 73 73 73 74 74 70 66 67 70 70 77 78 77 78 82 86 93 96 102 105
66 67 65 63 59 53 44 43 47 51 55 57 60 63 68 72 78 79 77 76 77 78 80 81 78 80 79 81 77 76 72 73 72 70 73 72 73 72 75 76 79 82 85 85 90
63 63 62 61 59 50 48 45 45 45 49 54 57 61 63 65 66 73 76 82 82 81 81 84 86 83 81 82 81 81 79 76 77 79 79 78 76 75 75 76 76 77 78 80 83
58 57 58 55 54 52 44 47 48 48 46 50 54 58 61 63 65 70 71 75 81 86 86 87 88 90 89 87 86 87 83 80 82 84 83 81 80 81 79 76 79 80 81 82 82
54 55 57 57 52 47 45 42 44 47 44 44 48 51 57 64 66 68 70 71 73 78 85 89 90 89 92 92 93 90 88 87 86 86 89 89 87 86 85 82 83 83 82 84 83
58 56 59 54 51 48 39 44 45 44 44 44 42 45 51 55 62 65 66 69 72 74 75 79 85 89 93 94 95 93 94 94 91 91 90 88 88 90 89 89 86 84 83 84 85
61 58 57 57 55 51 47 36 38 39 41 37 37 39 43 49 54 58 63 65 68 71 73 76 81 83 86 90 91 92 95 97 95 94 93 93 93 91 90 93 90 89 88 88 88
63 59 58 57 56 52 46 46 41 43 36 35 34 34 35 41 46 50 55 59 61 64 67 69 74 79 81 83 86 86 90 93 92 96 99 101 99 98 95 93 94 94 93 92 92
65 67 64 57 56 57 54 44 43 39 39 38 32 28 32 37 41 45 47 52 56 59 62 66 68 71 77 80 80 81 83 84 86 90 91 95 97 101 101 100 98 96 96 96 97
71 68 70 66 60 55 54 54 46 39 40 42 35 25 30 32 35 41 45 48 52 54 58 61 63 65 70 73 74 75 80 80 79 81 85 85 87 91 96 101 101 101 100 99 98
69 73 68 68 66 62 56 55 54 47 44 38 36 34 32 30 30 34 40 43 46 49 53 55 57 61 64 66 68 71 73 76 77 79 79 81 84 87 91 91 98 106 104 102 100
68 72 71 72 68 67 58 53 52 57 42 38 37 35 33 30 28 32 35 39 41 43 47 50 51 55 59 61 62 64 66 69 71 73 75 77 77 80 83 87 88 90 95 101 102
69 69 72 72 73 71 65 59 54 50 54 45 38 34 35 33 30 30 34 36 38 39 40 42 46 46 49 52 54 56 59 62 65 67 68 72 72 77 74 78 80 83 83 87 89
70 69 70 73 72 73 69 63 56 49 48 51 43 31 32 34 33 31 31 34 35 38 38 38 40 42 43 46 49 51 52 54 58 60 60 66 65 69 70 72 75 77 78 79 80
73 72 71 70 71 70 67 63 59 53 50 45 47 44 30 33 35 33 31 32 34 35 36 37 36 38 41 42 44 47 49 50 52 54 57 59 61 60 65 67 69 71 71 72 75
76 74 74 74 71 69 66 62 59 56 54 46 42 42 45 34 30 34 33 32 34 35 36 36 36 35 37 40 41 44 45 48 50 51 52 53 58 54 58 62 65 66 68 71 73
77 76 74 75 73 71 67 64 58 56 54 47 43 39 40 42 39 32 32 34 34 33 34 35 37 38 37 37 39 41 45 47 49 52 51 55 56 55 56 61 65 66 68 68 67
80 77 78 76 75 72 69 64 58 55 54 51 46 40 34 35 40 40 36 33 36 33 34 34 37 38 38 38 38 40 43 46 49 50 52 55 54 58 60 62 65 65 63 62 62
79 79 79 79 74 72 68 64 60 57 54 52 49 45 41 36 32 36 38 35 35 37 36 35 37 40 41 39 40 41 42 43 45 48 51 54 56 59 62 64 63 61 60 60 59
78 78 81 80 74 73 67 65 62 59 57 52 49 47 46 42 35 31 33 37 36 38 36 39 38 38 41 43 42 43 44 45 45 46 47 49 52 54 58 59 58 56 56 55 54
81 82 81 77 74 73 69 68 64 62 58 55 52 50 47 46 44 38 33 35 37 38 39 41 42 40 40 43 46 46 46 48 47 45 47 49 50 55 59 59 59 56 55 53 54
83 80 77 78 75 72 69 67 66 64 61 58 56 54 51 47 46 46 42 42 42 43 42 42 45 43 46 43 44 48 51 50 50 47 47 50 51 60 61 60 57 54 53 55 52
82 81 78 76 76 73 70 68 66 65 63 61 58 56 55 53 48 50 51 51 53 48 45 42 43 47 50 48 47 49 52 54 53 50 49 52 52 65 64 60 58 55 54 57 51
80 79 78 76 74 72 71 69 68 65 65 64 62 60 59 60 58 57 58 56 58 57 51 45 45 48 49 56 51 51 51 55 56 52 58 49 57 64 64 61 58 57 57 58 54
83 80 76 75 72 73 71 69 65 65 66 66 66 65 65 65 64 65 63 63 61 61 58 53 46 51 53 52 56 55 58 56 55 61 53 61 56 65 60 61 62 60 59 61 60
81 80 81 77 75 74 72 68 67 66 69 69 67 69 69 69 69 66 66 67 63 61 61 57 51 53 53 55 56 58 59 62 57 62 55 60 63 60 62 62 64 64 62 62 62
82 80 80 77 76 73 72 71 70 69 70 74 73 71 72 71 70 69 68 66 63 63 60 58 56 56 48 58 58 61 65 69 60 64 60 60 64 62 64 63 64 64 64 62 61
Wind_Direction
319 320 321 322 312 303 294 288 283 277 271 267 264 263 262 259 259 256 254 251 249 250 252 253 252 255 254 252 250 249 247 248 246 247 248 248 248 248 249 250 251 251 250 251 251
321 322 320 319 319 320 307 299 283 275 272 269 265 262 260 257 256 255 254 252 249 249 249 249 253 253 253 253 254 255 252 250 250 248 248 249 249 250 249 248 248 250 249 250 251
322 321 320 320 321 321 312 304 295 280 272 270 268 265 257 255 254 254 253 252 249 248 248 248 248 249 251 252 254 253 252 254 252 250 251 249 249 250 250 249 249 249 248 249 250
321 321 321 323 320 321 311 306 297 291 281 272 267 264 258 255 253 252 252 252 250 249 248 248 247 248 249 250 251 252 253 253 252 252 252 253 252 251 251 251 249 249 250 251 250
332 327 328 328 325 319 314 312 302 296 292 281 274 266 259 256 254 253 253 251 249 249 250 249 249 250 249 250 250 250 251 251 251 250 249 250 253 254 253 253 252 252 252 252 252
344 339 337 337 332 327 322 314 304 300 297 291 283 272 263 258 254 253 252 251 251 250 249 249 250 250 250 251 251 251 250 250 250 251 251 251 252 253 254 254 253 253 253 254 253
346 342 340 340 338 335 330 323 311 308 306 300 291 279 269 262 258 253 252 252 252 252 252 251 250 250 250 250 251 251 250 249 250 250 250 251 251 253 252 253 253 253 254 254 254
350 346 344 343 338 337 339 330 324 318 312 308 304 293 282 267 262 260 256 256 255 254 254 254 253 250 250 251 250 251 251 252 251 251 251 252 251 250 250 251 252 253 254 255 257
351 353 351 346 341 341 343 340 331 327 323 319 312 301 290 281 267 262 260 257 254 253 253 252 251 250 248 248 248 249 248 248 248 249 249 250 249 249 249 249 249 251 253 254 255
354 350 350 348 346 345 343 341 341 344 333 330 326 308 301 290 272 264 259 258 256 256 255 255 253 251 250 248 248 249 249 248 248 249 249 248 249 249 249 248 248 249 250 252 253
348 350 348 349 347 345 344 344 340 346 342 335 329 323 312 304 278 270 261 258 255 254 253 254 251 249 247 247 249 249 249 249 250 249 250 248 248 248 249 249 249 249 251 253 255
346 346 349 350 345 345 344 344 340 336 338 340 334 328 326 320 297 274 267 262 258 255 254 249 248 248 248 248 248 247 247 247 248 248 247 247 248 249 249 249 251 252 252 252 254
342 344 345 348 347 344 344 344 342 339 334 338 338 331 330 330 316 294 275 267 265 260 259 257 253 251 250 248 247 246 245 245 245 246 247 246 245 248 248 247 249 250 251 253 255
339 341 342 343 345 345 341 341 341 337 337 333 332 331 327 323 327 312 289 276 267 263 259 258 258 254 253 253 250 249 248 247 247 246 245 246 245 246 246 244 246 249 251 252 252
337 338 339 340 340 342 340 338 338 338 337 332 329 329 330 327 323 319 309 286 275 269 265 260 258 259 255 253 252 251 250 248 248 247 246 245 244 245 245 245 246 248 250 252 252
337 337 337 337 338 339 338 337 336 335 336 332 332 326 325 324 317 316 316 307 288 275 270 267 260 255 256 256 256 254 251 250 249 248 247 247 246 243 245 246 247 248 249 250 252
336 335 335 335 336 336 335 333 333 332 332 331 327 326 320 319 322 317 310 309 306 292 277 268 266 262 256 255 256 256 254 251 249 248 246 247 248 244 245 246 247 248 250 252 254
333 332 332 333 334 333 332 331 331 332 329 329 326 325 323 317 314 314 314 312 309 302 293 278 269 263 262 258 253 255 255 254 251 247 245 246 247 246 246 247 250 251 252 254 255
330 330 330 330 331 332 333 331 329 329 328 327 325 324 324 318 311 306 308 307 307 303 299 289 280 269 263 261 259 254 255 256 254 249 246 246 245 246 248 250 251 252 253 252 252
328 327 326 328 329 330 329 329 328 327 327 325 324 322 321 317 310 305 297 300 304 302 293 291 287 278 268 263 259 259 256 255 254 252 246 243 245 246 248 249 249 248 248 248 249
325 325 325 326 327 328 327 327 326 325 325 325 323 320 318 316 314 307 298 292 290 290 294 289 284 281 275 264 261 257 256 255 253 252 249 241 242 244 244 245 246 246 248 249 250
326 326 326 326 327 327 327 325 325 325 324 323 322 320 317 313 311 307 300 295 291 288 285 283 283 277 277 269 265 259 256 253 252 249 248 245 239 242 243 244 245 245 247 250 252
323 325 326 327 327 326 327 327 325 323 322 321 319 317 314 311 308 306 303 301 298 291 284 279 272 275 276 273 267 265 256 254 251 248 245 243 237 242 242 242 245 247 248 251 253
325 326 326 325 327 326 326 325 324 322 320 318 318 316 314 312 310 307 303 301 298 294 287 278 275 268 264 271 267 265 260 254 251 249 243 243 240 239 241 242 245 249 249 252 255
325 326 326 326 327 325 325 323 323 320 318 318 317 315 314 311 309 305 303 300 296 293 289 284 275 269 264 261 265 260 262 256 252 249 245 245 239 243 238 240 242 246 250 253 254
325 326 325 325 325 325 324 323 322 321 319 317 315 314 311 308 307 305 302 298 296 293 289 283 278 268 265 262 260 259 256 258 251 250 243 241 244 240 241 237 240 244 247 250 253
327 326 326 326 325 325 325 323 322 321 318 316 316 314 311 309 308 305 303 299 294 291 286 283 277 270 263 258 253 257 254 259 252 252 249 241 241 243 241 239 238 240 243 248 253